User: anonymous   Login
Location: Albany
(35.0000°S, 118.0000°E)
Time: 14:00:41
(UTC-05:00)
Language:

ERS-1 Rocket - Orbit

View from above orbital plane
View from above orbital plane
View from above satellite
View from above satellite

Ground track
Ground track

The orbit data is extracted from the following two-line orbital elements,

1 21610U 91050F   14324.71468692  .00000519  00000-0  17792-3 0  6544
2 21610 098.7283 352.6895 0002822 206.5629 263.1822 14.40414195224848
Epoch (UTC): 20 November 2014 17:09:08
Eccentricity: 0.0002822
inclination: 98.7283°
perigee height: 755 km
apogee height: 759 km
right ascension of ascending node: 352.6895°
argument of perigee: 206.5629°
revolutions per day: 14.40414195
mean anomaly at epoch: 263.1822°
orbit number at epoch: 22484

The dashed part of the orbit path shows where the satellite is in the earth's shadow,  

DLR